Location: Newark
(7.0858°N, 171.3717°E)
Time: 20:57:51
(UTC+00:00)

Tiros 1 - Pass Details

Date: 04 December 2020
Orbit: 630 x 663 km, 48.4° (Epoch: 18 January)

Event Time Altitude Azimuth Distance (km) Brightness Sun altitude
Rises 09:27:22 0° 337° (NNW) 2,948 - -44.7°
Reaches altitude 10° 09:29:58 10° 349° (N) 2,033 - -45.3°
Maximum altitude 09:34:00 28° 49° (NE) 1,191 - -46.2°
Drops below altitude 10° 09:38:00 10° 108° (ESE) 2,017 - -47.1°
Sets 09:40:34 0° 120° (ESE) 2,921 - -47.6°
